Regional Weather Roundup
Issued by NWS

Home | Current Version | Previous Version | Graphics & Text | Print | Product List | Glossary On
Versions: 1 2 3 4 5 6 7 8 9 10 11 12 13 14 15 16 17 18 19 20 21 22 23 24 25 26 27 28 29 30 31 32 33 34 35 36 37 38 39 40 41 42 43 44 45 46 47 48 49 50
000
ASUS43 KLMK 300210
RWRKY
KENTUCKY REGIONAL WEATHER ROUNDUP
NATIONAL WEATHER SERVICE LOUISVILLE KY
1000 PM EDT WED OCT 29 2014

NOTE "FAIR" INDICATES FEW OR NO CLOUDS BELOW 12,000 FEET
WITH NO SIGNIFICANT WEATHER AND/OR OBSTRUCTIONS TO VISIBILITY.

KYZ001>023-026-027-061>063-070>075-300300-
WESTERN AND SOUTH CENTRAL KENTUCKY

CITY           SKY/WX    TMP DP  RH WIND       PRES   REMARKS
PADUCAH        CLEAR     45  39  79 CALM      30.14S
HENDERSON      CLEAR     43  34  70 NW3       30.15R
OWENSBORO      CLEAR     50  38  63 N3        30.15S
HOPKINSVILLE   CLEAR     53  35  50 N7        30.13S
BOWLING GREEN  CLEAR     53  36  52 CALM      30.13S
GLASGOW        CLEAR     49  36  59 N3        30.12S
$$

KYZ024-025-028>034-038-045-046-053-300300-
NORTH CENTRAL KENTUCKY

CITY           SKY/WX    TMP DP  RH WIND       PRES   REMARKS
LOUISVILLE/SDF CLEAR     49  36  61 VRB6      30.13S
LOUISVILLE/LOU CLEAR     50  35  56 NW7       30.14R
FORT KNOX      CLEAR     47  36  65 NW5       30.13R
$$

KYZ035>037-039>044-047>052-055>060-089>105-300300-
NORTHEAST KENTUCKY

CITY           SKY/WX    TMP DP  RH WIND       PRES   REMARKS
LEXINGTON      CLEAR     49  36  61 NW8       30.11R
COVINGTON      PTCLDY    46  34  62 N6        30.13R
FRANKFORT      CLEAR     48  35  60 NW5       30.11R
$$

KYZ054-064>069-076>088-106>120-300300-
SOUTHEAST KENTUCKY

CITY           SKY/WX    TMP DP  RH WIND       PRES   REMARKS
JACKSON        CLEAR     52  36  54 W3        30.09R
LONDON         CLEAR     47  40  76 CALM      30.10R
SOMERSET       CLEAR     45  41  87 CALM      30.12R
MIDDLESBORO    CLEAR     44  41  91 CALM      30.12R
MONTICELLO     CLEAR     41  40  96 CALM      30.13R
$$




USA.gov is the U.S. government's official web portal to all federal, state and local government web resources and services.